This is the latest recevied weather packets stored in our database for station/object SP2ARK-10. If no packets are shown the sender has not sent any weather packets the latest 10 day(s).
| Time | Temp. | Humidity | Pressure | Rain* | Wind** | Luminosity | Snow |
|---|---|---|---|---|---|---|---|
| 1777639660 | 22.78° C | 55% | 1031.1 hPa | - | - | - | - |
| 1777638759 | 22.22° C | 56% | 1031.3 hPa | - | - | - | - |
| 1777637858 | 22.22° C | 56% | 1031.4 hPa | - | - | - | - |
| 1777636957 | 21.11° C | 57% | 1031.5 hPa | - | - | - | - |
| 1777635156 | 20.56° C | 59% | 1031.7 hPa | - | - | - | - |
| 1777634255 | 19.44° C | 61% | 1031.8 hPa | - | - | - | - |
| 1777633355 | 19.44° C | 62% | 1031.8 hPa | - | - | - | - |
| 1777632454 | 18.33° C | 64% | 1031.9 hPa | - | - | - | - |
| 1777631553 | 17.78° C | 63% | 1031.9 hPa | - | - | - | - |
| 1777630653 | 17.22° C | 63% | 1031.9 hPa | - | - | - | - |
| 1777629752 | 16.67° C | 64% | 1032.1 hPa | - | - | - | - |
| 1777628851 | 15.56° C | 66% | 1032.2 hPa | - | - | - | - |
| 1777627950 | 15° C | 66% | 1032.4 hPa | - | - | - | - |
| 1777627049 | 14.44° C | 67% | 1032.4 hPa | - | - | - | - |
| 1777626149 | 13.89° C | 68% | 1032.5 hPa | - | - | - | - |
| 1777625249 | 12.78° C | 68% | 1032.5 hPa | - | - | - | - |
| 1777624348 | 12.78° C | 69% | 1032.5 hPa | - | - | - | - |
| 1777623448 | 12.22° C | 69% | 1032.6 hPa | - | - | - | - |
| 1777622547 | 12.22° C | 70% | 1032.6 hPa | - | - | - | - |
| 1777621647 | 11.67° C | 70% | 1032.7 hPa | - | - | - | - |
| 1777620746 | 11.11° C | 72% | 1032.7 hPa | - | - | - | - |
| 1777619845 | 10.56° C | 73% | 1032.8 hPa | - | - | - | - |
| 1777618944 | 10.56° C | 75% | 1032.7 hPa | - | - | - | - |
| 1777618043 | 10° C | 76% | 1032.7 hPa | - | - | - | - |
| 1777617143 | 10° C | 79% | 1032.7 hPa | - | - | - | - |
* Rain since midnight (hover to see other rain measurements)
** Current wind speed in m/s (hover to see current wind gust speed)